Location: Stuart
(27.1975°N, 80.2528°W)
Time: 08:06:38
(UTC-04:00)

ISS - Pass Details

Date: 08 April 2020
Orbit: 417 x 419 km, 51.6° (Epoch: 03 June)

Event Time Altitude Azimuth Distance (km) Brightness Sun altitude
Rises 20:28:01 0° 319° (NW) 2,356 1.1 -10.8°
Reaches altitude 10° 20:30:07 10° 321° (NW) 1,490 -0.1 -11.2°
Maximum altitude 20:33:28 79° 47° (NE) 426 -3.8 -12.0°
Enters shadow 20:35:48 18° 133° (SE) 1,082 -2.2 -12.4°
